TimePST,TemperatureF,Dew PointF,Humidity,Sea Level PressureIn,VisibilityMPH,Wind Direction,Wind SpeedMPH,Gust SpeedMPH,PrecipitationIn,Events,Conditions,WindDirDegrees,DateUTC
12:53 AM,62.1,55.0,78,30.02,7.0,East,6.9,-,N/A,,Overcast,100,2012-12-06 08:53:00
1:43 AM,62.6,55.4,77,30.01,7.0,East,3.5,-,N/A,,Overcast,90,2012-12-06 09:43:00
1:53 AM,62.1,55.0,78,30.01,7.0,ESE,4.6,-,N/A,,Overcast,110,2012-12-06 09:53:00
2:53 AM,61.0,55.0,81,29.99,8.0,ESE,4.6,-,N/A,,Overcast,120,2012-12-06 10:53:00
3:53 AM,61.0,54.0,78,29.98,10.0,East,6.9,-,N/A,,Overcast,100,2012-12-06 11:53:00
4:53 AM,61.0,53.1,75,29.96,10.0,Calm,Calm,-,N/A,,Overcast,0,2012-12-06 12:53:00
5:53 AM,62.1,54.0,75,29.96,10.0,Calm,Calm,-,N/A,,Overcast,0,2012-12-06 13:53:00
6:53 AM,62.1,54.0,75,29.97,10.0,Calm,Calm,-,N/A,,Overcast,0,2012-12-06 14:53:00
7:53 AM,62.1,55.9,80,29.98,7.0,Calm,Calm,-,N/A,,Overcast,0,2012-12-06 15:53:00
8:53 AM,64.0,55.9,75,29.99,7.0,Calm,Calm,-,N/A,,Overcast,0,2012-12-06 16:53:00
9:53 AM,64.0,55.9,75,30.00,8.0,Calm,Calm,-,N/A,,Overcast,0,2012-12-06 17:53:00
10:53 AM,64.9,55.9,73,29.98,8.0,Calm,Calm,-,N/A,,Overcast,0,2012-12-06 18:53:00
11:53 AM,66.0,55.0,68,29.94,10.0,Calm,Calm,-,N/A,,Overcast,0,2012-12-06 19:53:00
12:53 PM,66.9,55.0,66,29.92,9.0,NW,5.8,-,N/A,,Mostly Cloudy,310,2012-12-06 20:53:00
1:53 PM,68.0,55.0,63,29.88,10.0,SW,3.5,-,N/A,,Scattered Clouds,220,2012-12-06 21:53:00
2:53 PM,68.0,55.0,63,29.88,10.0,WNW,4.6,-,N/A,,Partly Cloudy,300,2012-12-06 22:53:00
3:53 PM,66.0,55.0,68,29.88,9.0,West,5.8,-,N/A,,Partly Cloudy,260,2012-12-06 23:53:00
4:53 PM,64.0,55.0,73,29.88,9.0,WSW,5.8,-,N/A,,Partly Cloudy,240,2012-12-07 00:53:00
5:53 PM,63.0,55.9,78,29.89,8.0,WSW,3.5,-,N/A,,Partly Cloudy,240,2012-12-07 01:53:00
6:07 PM,62.6,55.4,77,29.90,8.0,Calm,Calm,-,N/A,,Mostly Cloudy,0,2012-12-07 02:07:00
6:53 PM,62.1,55.9,80,29.91,6.0,Calm,Calm,-,N/A,,Haze,0,2012-12-07 02:53:00
7:53 PM,62.1,55.9,80,29.92,5.0,Calm,Calm,-,N/A,,Haze,0,2012-12-07 03:53:00
8:53 PM,62.1,55.9,80,29.92,4.0,Calm,Calm,-,N/A,,Haze,0,2012-12-07 04:53:00
9:35 PM,60.8,55.4,82,29.93,3.0,Calm,Calm,-,N/A,,Haze,0,2012-12-07 05:35:00
9:53 PM,60.1,55.0,83,29.93,4.0,Calm,Calm,-,N/A,,Haze,0,2012-12-07 05:53:00
10:03 PM,59.0,55.4,88,29.93,4.0,Calm,Calm,-,N/A,,Mostly Cloudy,0,2012-12-07 06:03:00
10:53 PM,59.0,55.0,87,29.93,2.5,Calm,Calm,-,N/A,,Mostly Cloudy,0,2012-12-07 06:53:00
11:08 PM,59.0,55.4,88,29.93,3.0,Calm,Calm,-,N/A,,Mostly Cloudy,0,2012-12-07 07:08:00
11:53 PM,61.0,55.9,83,29.94,4.0,Calm,Calm,-,N/A,,Haze,0,2012-12-07 07:53:00